sat.trackr.live / text

‹ back to catalog

GONETS-M 13

NORAD 40554 · 2015-020C

PAYLOAD ACTIVE UNKNOWN

§ Identity

Operator
Country
CIS
Launch date
2015-03-31
Launch site
PLMSC
Launch vehicle
Mass (kg)
RCS (m²)
1.59

External: N2YO · Heavens-Above · Gunter

§ Orbital elements

Epoch: 2026-09-20T04:25:13.990080Z

Period
115.86 min
Inclination
82.4897°
Eccentricity
0.0014958
Mean motion
12.42887418 rev/d
Perigee alt
1,482.6 km
Apogee alt
1,506.2 km
Semi-major
7,872.5 km
B*
4.2027e-4
RAAN
331.5448°
Arg perigee
123.2931°
Mean anomaly
236.9583°
Rev number
52,050

§ Raw data

GONETS-M 131 40554U 15020C   26263.18418970  .00000068  00000+0  42027-3 0  99942 40554  82.4897 331.5448 0014958 123.2931 236.9583 12.42887418520507

JSON: /api/v1/satellites/40554 · /tle

For live sub-satellite position, see the globe view (requires WebGL).

§ Visibility from observer

Set your observer location to see the next 7 days of passes ≥ 10°. The values pass through the URL so the page stays shareable.

No JS? Fill the form by hand. The geolocation button needs JavaScript.

§ Radio — SatNOGS DB

ModeDescriptionDownlinkUplink
FM Telemetry 265.059 MHz
FM UHF Unknown 387.062 MHz
FM UHF Unknown 387.625 MHz
FM UHF Unknown 387.837 MHz

4 transmitters · refreshed weekly from db.satnogs.org